Tracking 33744 objects as of 12-Apr-2026
HD Live streaming from Space Station
objects crossing your sky now

NOAA 16 DEB

Track NOAA 16 DEB now!
10-day predictions


NORAD ID: 42349
Int'l Code: 2000-055QR
Perigee: 811.1 km
Apogee: 820.3 km
Inclination: 98.7 °
Period: 101.1 minutes
Semi major axis: 7186 km
RCS: Unknown
Launch date: September 21, 2000
Source: United States (US)
Launch site: AIR FORCE WESTERN TEST RANGE (AFWTR)

Note: This is SATELLITE DEBRIS
Your satellite tracking list
Your tracking list is empty




NASA's NSSDC Master Catalog

Two Line Element Set (TLE):
1 42349U 00055QR  26101.62696466  .00002459  00000-0  10694-2 0  9999
2 42349  98.6659 162.6270 0006429 285.8809  74.1661 14.24974085517734
Source of the keplerian elements: AFSPC